TimeEST,TemperatureF,Dew PointF,Humidity,Sea Level PressureIn,VisibilityMPH,Wind Direction,Wind SpeedMPH,Gust SpeedMPH,PrecipitationIn,Events,Conditions,WindDirDegrees,DateUTC
12:53 AM,39.9,23.0,51,29.73,10.0,West,16.1,26.5,N/A,,Clear,280,2013-03-06 05:53:00
1:53 AM,37.9,27.0,65,29.75,10.0,WSW,11.5,19.6,N/A,,Scattered Clouds,250,2013-03-06 06:53:00
2:53 AM,37.0,25.0,62,29.73,10.0,West,17.3,23.0,N/A,,Clear,270,2013-03-06 07:53:00
3:53 AM,36.0,24.1,62,29.74,10.0,West,13.8,20.7,N/A,,Clear,270,2013-03-06 08:53:00
4:53 AM,34.0,23.0,64,29.76,10.0,West,12.7,20.7,N/A,,Clear,260,2013-03-06 09:53:00
5:53 AM,34.0,17.1,50,29.79,10.0,West,10.4,20.7,N/A,,Clear,280,2013-03-06 10:53:00
6:53 AM,34.0,16.0,48,29.82,10.0,West,11.5,23.0,N/A,,Clear,280,2013-03-06 11:53:00
7:53 AM,34.0,18.0,52,29.84,10.0,West,13.8,-,N/A,,Clear,270,2013-03-06 12:53:00
8:53 AM,37.9,18.0,45,29.85,10.0,West,15.0,19.6,N/A,,Clear,280,2013-03-06 13:53:00
9:53 AM,37.9,18.0,45,29.88,10.0,WNW,10.4,23.0,N/A,,Clear,290,2013-03-06 14:53:00
10:53 AM,41.0,18.0,40,29.90,10.0,West,9.2,17.3,N/A,,Clear,280,2013-03-06 15:53:00
11:53 AM,46.0,18.0,33,29.91,10.0,Variable,6.9,-,N/A,,Clear,0,2013-03-06 16:53:00
12:53 PM,46.9,23.0,39,29.91,10.0,NNE,17.3,23.0,N/A,,Mostly Cloudy,20,2013-03-06 17:53:00
1:53 PM,48.0,23.0,37,29.93,10.0,North,19.6,27.6,N/A,,Mostly Cloudy,360,2013-03-06 18:53:00
2:53 PM,48.0,24.1,39,29.94,10.0,North,16.1,26.5,N/A,,Scattered Clouds,10,2013-03-06 19:53:00
3:53 PM,48.0,23.0,37,29.97,10.0,North,16.1,23.0,N/A,,Partly Cloudy,350,2013-03-06 20:53:00
4:53 PM,46.0,24.1,42,30.00,10.0,NNW,18.4,27.6,N/A,,Clear,330,2013-03-06 21:53:00
5:53 PM,42.1,24.1,49,30.06,10.0,North,16.1,20.7,N/A,,Clear,10,2013-03-06 22:53:00
6:53 PM,39.0,24.1,55,30.09,10.0,NNW,11.5,26.5,N/A,,Clear,340,2013-03-06 23:53:00
7:53 PM,37.0,24.1,59,30.11,10.0,North,12.7,18.4,N/A,,Clear,350,2013-03-07 00:53:00
8:53 PM,36.0,24.1,62,30.11,10.0,NNW,10.4,-,N/A,,Clear,330,2013-03-07 01:53:00
9:53 PM,36.0,24.1,62,30.13,10.0,NNW,9.2,-,N/A,,Clear,340,2013-03-07 02:53:00
10:53 PM,35.1,24.1,64,30.12,10.0,NNW,6.9,-,N/A,,Clear,330,2013-03-07 03:53:00
11:53 PM,35.1,24.1,64,30.12,10.0,NNW,6.9,-,N/A,,Clear,330,2013-03-07 04:53:00